This is the latest recevied weather packets stored in our database for station/object KM7BEO. If no packets are shown the sender has not sent any weather packets the latest 10 day(s).
| Time | Temp. | Humidity | Pressure | Rain* | Wind** | Luminosity | Snow |
|---|---|---|---|---|---|---|---|
| 1778162532 | 10° C | 86% | 1020.1 hPa | 0 mm | - | 54 W/m² | - |
| 1778162229 | 10° C | 87% | 1019.9 hPa | 0 mm | - | 45 W/m² | - |
| 1778161927 | 10° C | 86% | 1019.9 hPa | 0 mm | - | 50 W/m² | - |
| 1778161623 | 10° C | 87% | 1019.8 hPa | 0 mm | - | 43 W/m² | - |
| 1778161319 | 10° C | 87% | 1020 hPa | 0 mm | - | 32 W/m² | - |
| 1778161015 | 10° C | 87% | 1020 hPa | 0 mm | - | 28 W/m² | - |
| 1778160712 | 9.44° C | 87% | 1019.9 hPa | 0 mm | - | 31 W/m² | - |
| 1778160409 | 9.44° C | 88% | 1019.8 hPa | 0 mm | - | 26 W/m² | - |
| 1778160105 | 9.44° C | 88% | 1020 hPa | 0 mm | - | 23 W/m² | - |
| 1778159803 | 9.44° C | 88% | 1020.1 hPa | 0 mm | - | 15 W/m² | - |
| 1778159500 | 9.44° C | 88% | 1020 hPa | 0 mm | - | 11 W/m² | - |
| 1778159196 | 9.44° C | 88% | 1019.9 hPa | 0 mm | - | 8 W/m² | - |
| 1778158894 | 9.44° C | 88% | 1020.1 hPa | 0 mm | - | 5 W/m² | - |
| 1778158593 | 9.44° C | 88% | 1020 hPa | 0 mm | - | 4 W/m² | - |
| 1778158290 | 9.44° C | 88% | 1020 hPa | 0 mm | - | 3 W/m² | - |
| 1778157986 | 9.44° C | 88% | 1020 hPa | 0 mm | - | 2 W/m² | - |
| 1778157684 | 9.44° C | 88% | 1020 hPa | 0 mm | - | 1 W/m² | - |
| 1778157382 | 9.44° C | 88% | 1020.1 hPa | 0 mm | - | 1 W/m² | - |
| 1778157079 | 9.44° C | 88% | 1020.1 hPa | 0 mm | - | 0 W/m² | - |
| 1778156774 | 9.44° C | 88% | 1020.2 hPa | 0 mm | - | 0 W/m² | - |
| 1778156470 | 9.44° C | 88% | 1020.2 hPa | 0 mm | - | 0 W/m² | - |
| 1778156166 | 9.44° C | 88% | 1020.3 hPa | 0 mm | - | 0 W/m² | - |
| 1778155862 | 10° C | 88% | 1020.2 hPa | 0 mm | - | 0 W/m² | - |
| 1778155558 | 10° C | 88% | 1020.3 hPa | 0 mm | - | 0 W/m² | - |
| 1778155255 | 10° C | 88% | 1020.3 hPa | 0 mm | - | 0 W/m² | - |
* Rain latest hour (hover to see other rain measurements)
** Current wind speed in m/s (hover to see current wind gust speed)